TimeCDT,TemperatureF,Dew PointF,Humidity,Sea Level PressureIn,VisibilityMPH,Wind Direction,Wind SpeedMPH,Gust SpeedMPH,PrecipitationIn,Events,Conditions,WindDirDegrees,DateUTC
12:15 AM,23.9,19.6,84,30.31,10.0,West,3.5,-,N/A,,Mostly Cloudy,280,2013-03-28 05:15:00
12:35 AM,23.5,18.5,81,30.31,10.0,Calm,Calm,-,N/A,,Mostly Cloudy,0,2013-03-28 05:35:00
12:55 AM,23.5,18.3,80,30.31,10.0,Calm,Calm,-,N/A,,Overcast,0,2013-03-28 05:55:00
1:15 AM,25.2,18.0,74,30.31,10.0,Calm,Calm,-,N/A,,Mostly Cloudy,0,2013-03-28 06:15:00
1:35 AM,24.1,17.6,76,30.31,10.0,Calm,Calm,-,N/A,,Mostly Cloudy,0,2013-03-28 06:35:00
1:55 AM,23.2,18.5,82,30.31,10.0,West,3.5,-,N/A,,Overcast,280,2013-03-28 06:55:00
2:15 AM,23.5,19.4,84,30.31,10.0,West,3.5,-,N/A,,Overcast,270,2013-03-28 07:15:00
2:35 AM,22.6,18.7,85,30.31,10.0,West,3.5,-,N/A,,Overcast,280,2013-03-28 07:35:00
2:55 AM,22.1,18.1,85,30.31,10.0,Calm,Calm,-,N/A,,Mostly Cloudy,0,2013-03-28 07:55:00
3:15 AM,22.1,18.5,86,30.31,10.0,West,3.5,-,N/A,,Mostly Cloudy,280,2013-03-28 08:15:00
3:35 AM,21.7,17.8,85,30.31,10.0,West,3.5,-,N/A,,Overcast,280,2013-03-28 08:35:00
3:55 AM,23.7,18.0,79,30.30,10.0,WNW,3.5,-,N/A,,Overcast,290,2013-03-28 08:55:00
4:15 AM,24.6,18.3,77,30.30,10.0,Calm,Calm,-,N/A,,Mostly Cloudy,0,2013-03-28 09:15:00
4:35 AM,25.7,18.7,75,30.30,10.0,WNW,3.5,-,N/A,,Overcast,290,2013-03-28 09:35:00
4:55 AM,26.2,18.9,74,30.30,10.0,WNW,3.5,-,N/A,,Overcast,290,2013-03-28 09:55:00
5:15 AM,27.1,19.2,72,30.30,10.0,Calm,Calm,-,N/A,,Overcast,0,2013-03-28 10:15:00
5:35 AM,23.4,17.1,77,30.31,10.0,Calm,Calm,-,N/A,,Overcast,0,2013-03-28 10:35:00
5:55 AM,25.2,19.4,79,30.31,10.0,West,4.6,-,N/A,,Mostly Cloudy,280,2013-03-28 10:55:00
6:15 AM,25.2,18.5,76,30.31,10.0,West,5.8,-,N/A,,Mostly Cloudy,280,2013-03-28 11:15:00
6:35 AM,26.2,19.8,76,30.32,10.0,West,4.6,-,N/A,,Mostly Cloudy,280,2013-03-28 11:35:00
6:55 AM,26.6,19.8,75,30.32,10.0,West,5.8,-,N/A,,Scattered Clouds,280,2013-03-28 11:55:00
7:15 AM,26.4,19.8,76,30.32,10.0,West,5.8,-,N/A,,Clear,280,2013-03-28 12:15:00
7:55 AM,31.6,23.4,71,30.33,10.0,West,4.6,-,N/A,,Clear,280,2013-03-28 12:55:00
8:15 AM,32.7,23.5,69,30.33,10.0,WNW,4.6,-,N/A,,Clear,290,2013-03-28 13:15:00
8:35 AM,34.5,23.9,65,30.33,10.0,WNW,5.8,-,N/A,,Clear,290,2013-03-28 13:35:00
8:55 AM,36.0,23.7,61,30.33,10.0,NW,4.6,-,N/A,,Clear,320,2013-03-28 13:55:00
9:15 AM,37.6,22.1,54,30.33,10.0,NW,6.9,-,N/A,,Clear,310,2013-03-28 14:15:00
9:35 AM,38.8,21.6,50,30.33,10.0,WNW,4.6,-,N/A,,Clear,290,2013-03-28 14:35:00
9:55 AM,39.7,21.0,47,30.33,10.0,WNW,4.6,-,N/A,,Clear,300,2013-03-28 14:55:00
10:15 AM,41.0,19.4,42,30.34,10.0,WNW,5.8,-,N/A,,Clear,300,2013-03-28 15:15:00
10:35 AM,41.7,19.2,41,30.34,10.0,NNW,8.1,-,N/A,,Clear,340,2013-03-28 15:35:00
10:55 AM,42.3,17.1,36,30.33,10.0,NW,4.6,-,N/A,,Clear,310,2013-03-28 15:55:00
11:15 AM,42.8,17.6,36,30.34,10.0,NW,5.8,-,N/A,,Clear,310,2013-03-28 16:15:00
11:35 AM,43.3,17.4,35,30.34,10.0,NW,6.9,-,N/A,,Clear,310,2013-03-28 16:35:00
11:55 AM,44.1,17.8,35,30.33,10.0,NW,5.8,-,N/A,,Clear,310,2013-03-28 16:55:00
12:15 PM,44.2,17.1,34,30.33,10.0,NW,6.9,-,N/A,,Clear,310,2013-03-28 17:15:00
12:35 PM,44.8,17.1,33,30.33,10.0,WNW,10.4,-,N/A,,Clear,300,2013-03-28 17:35:00
12:55 PM,45.5,17.2,32,30.33,10.0,NW,8.1,-,N/A,,Clear,320,2013-03-28 17:55:00
1:15 PM,45.0,16.3,32,30.33,10.0,West,6.9,-,N/A,,Clear,280,2013-03-28 18:15:00
1:35 PM,45.7,17.2,32,30.33,10.0,WNW,8.1,-,N/A,,Clear,300,2013-03-28 18:35:00
1:55 PM,45.7,16.9,32,30.32,10.0,NW,11.5,-,N/A,,Clear,320,2013-03-28 18:55:00
2:15 PM,45.7,16.9,32,30.32,10.0,NNW,9.2,19.6,N/A,,Clear,330,2013-03-28 19:15:00
2:35 PM,46.0,16.2,30,30.31,10.0,WNW,10.4,-,N/A,,Clear,300,2013-03-28 19:35:00
2:55 PM,45.9,16.3,31,30.30,10.0,NNW,13.8,18.4,N/A,,Clear,330,2013-03-28 19:55:00
3:15 PM,46.0,15.6,30,30.30,10.0,NNW,10.4,-,N/A,,Clear,340,2013-03-28 20:15:00
3:35 PM,46.4,16.2,30,30.29,10.0,NW,9.2,-,N/A,,Clear,310,2013-03-28 20:35:00
3:55 PM,46.8,16.5,30,30.29,10.0,NW,8.1,-,N/A,,Clear,310,2013-03-28 20:55:00
4:15 PM,46.4,16.9,31,30.28,10.0,North,11.5,-,N/A,,Clear,360,2013-03-28 21:15:00
4:35 PM,46.4,16.9,31,30.28,10.0,NNW,11.5,-,N/A,,Clear,340,2013-03-28 21:35:00
4:55 PM,46.0,16.2,30,30.28,10.0,North,5.8,-,N/A,,Clear,360,2013-03-28 21:55:00
5:15 PM,45.9,16.5,31,30.28,10.0,North,6.9,-,N/A,,Clear,350,2013-03-28 22:15:00
5:35 PM,45.7,17.4,32,30.28,10.0,North,8.1,-,N/A,,Clear,360,2013-03-28 22:35:00
5:55 PM,45.0,16.3,32,30.28,10.0,North,6.9,-,N/A,,Clear,360,2013-03-28 22:55:00
6:15 PM,44.1,16.7,33,30.28,10.0,North,5.8,-,N/A,,Clear,10,2013-03-28 23:15:00
6:35 PM,43.0,16.7,35,30.28,10.0,North,5.8,-,N/A,,Clear,360,2013-03-28 23:35:00
6:55 PM,40.3,18.0,41,30.28,10.0,North,5.8,-,N/A,,Clear,10,2013-03-28 23:55:00
7:15 PM,39.0,16.3,40,30.28,10.0,North,4.6,-,N/A,,Clear,360,2013-03-29 00:15:00
7:35 PM,37.8,16.2,42,30.28,10.0,NNE,3.5,-,N/A,,Scattered Clouds,20,2013-03-29 00:35:00
7:55 PM,37.9,16.0,41,30.29,10.0,Calm,Calm,-,N/A,,Scattered Clouds,0,2013-03-29 00:55:00
8:15 PM,32.0,18.0,56,30.29,10.0,Calm,Calm,-,N/A,,Clear,0,2013-03-29 01:15:00
8:35 PM,33.8,17.4,51,30.30,10.0,Calm,Calm,-,N/A,,Clear,0,2013-03-29 01:35:00
8:55 PM,32.7,18.3,55,30.30,10.0,Calm,Calm,-,N/A,,Clear,0,2013-03-29 01:55:00
9:15 PM,30.4,19.6,64,30.31,10.0,Calm,Calm,-,N/A,,Clear,0,2013-03-29 02:15:00
9:35 PM,28.6,19.8,70,30.31,10.0,NNW,3.5,-,N/A,,Clear,340,2013-03-29 02:35:00
9:55 PM,29.1,21.7,74,30.31,10.0,Calm,Calm,-,N/A,,Scattered Clouds,0,2013-03-29 02:55:00
10:15 PM,27.5,21.4,78,30.31,10.0,Calm,Calm,-,N/A,,Clear,0,2013-03-29 03:15:00
10:35 PM,27.5,20.7,75,30.31,10.0,Calm,Calm,-,N/A,,Scattered Clouds,0,2013-03-29 03:35:00
10:55 PM,27.1,21.0,78,30.31,10.0,Calm,Calm,-,N/A,,Clear,0,2013-03-29 03:55:00
11:15 PM,26.4,20.1,77,30.31,10.0,Calm,Calm,-,N/A,,Scattered Clouds,0,2013-03-29 04:15:00
11:35 PM,26.4,20.5,78,30.31,10.0,Calm,Calm,-,N/A,,Scattered Clouds,0,2013-03-29 04:35:00
11:55 PM,26.8,20.7,78,30.31,10.0,Calm,Calm,-,N/A,,Scattered Clouds,0,2013-03-29 04:55:00